• In Hungary
  • List of Countries
  • For 7 days
  • Water Temperature
  • Satellite Maps
  • Weather Map
  • News
  • Weather Widgets
  • user-avatar
    Login

    Hourly Weather Podgorskoe

    Today, 26 September, Wednesday

    Time Temperature Precipitation Wind Pressure Humidity
    00:00 +6°C° 0 mm 4 mps 746 mmHg 74%
    01:00 +6°C° 0 mm 4 mps 747 mmHg 77%
    02:00 +5°C° 0 mm 4 mps 747 mmHg 79%
    03:00 +5°C° 0 mm 3 mps 748 mmHg 81%
    04:00 +4°C° 0 mm 3 mps 748 mmHg 83%
    05:00 +4°C° 0 mm 3 mps 749 mmHg 85%
    06:00 +3°C° 0 mm 4 mps 749 mmHg 87%
    07:00 +4°C° 0 mm 4 mps 750 mmHg 84%
    08:00 +5°C° 0 mm 4 mps 750 mmHg 80%
    09:00 +5°C° 0 mm 4 mps 751 mmHg 77%
    10:00 +6°C° 0 mm 5 mps 751 mmHg 71%
    11:00 +7°C° 0 mm 5 mps 752 mmHg 65%
    12:00 +8°C° 0 mm 5 mps 752 mmHg 59%
    13:00 +9°C° 0 mm 5 mps 752 mmHg 57%
    14:00 +9°C° 0 mm 5 mps 752 mmHg 55%
    15:00 +10°C° 0 mm 5 mps 752 mmHg 53%
    16:00 +10°C° 0 mm 4 mps 752 mmHg 56%
    17:00 +8°C° 0 mm 4 mps 752 mmHg 60%
    18:00 +8°C° 0 mm 3 mps 752 mmHg 63%
    19:00 +8°C° 0 mm 3 mps 752 mmHg 64%
    20:00 +6°C° 0 mm 4 mps 751 mmHg 66%
    21:00 +6°C° 0 mm 4 mps 751 mmHg 67%
    22:00 +6°C° 0 mm 5 mps 751 mmHg 67%
    23:00 +5°C° 0 mm 6 mps 750 mmHg 67%

    Tomorrow, 27 September, Thursday

    Time Temperature Precipitation Wind Pressure Humidity
    00:00 +5°C° 0 mm 6 mps 749 mmHg 67%
    01:00 +5°C° 0 mm 7 mps 749 mmHg 65%
    02:00 +5°C° 0 mm 8 mps 748 mmHg 63%
    03:00 +5°C° 0 mm 8 mps 747 mmHg 60%
    04:00 +5°C° 0.5 mm 9 mps 746 mmHg 63%
    05:00 +5°C° 0.5 mm 9 mps 745 mmHg 66%
    06:00 +5°C° 0.5 mm 10 mps 744 mmHg 68%
    07:00 +5°C° 0.6 mm 10 mps 743 mmHg 72%
    08:00 +4°C° 0.6 mm 11 mps 742 mmHg 75%
    09:00 +4°C° 0.6 mm 11 mps 742 mmHg 78%
    10:00 +4°C° 0.4 mm 11 mps 741 mmHg 80%
    11:00 +6°C° 0.4 mm 11 mps 741 mmHg 82%
    12:00 +6°C° 0.4 mm 10 mps 741 mmHg 83%
    13:00 +7°C° 0.1 mm 10 mps 741 mmHg 82%
    14:00 +7°C° 0.1 mm 9 mps 741 mmHg 80%
    15:00 +8°C° 0.1 mm 9 mps 741 mmHg 79%
    16:00 +9°C° 0.1 mm 8 mps 741 mmHg 78%
    17:00 +9°C° 0.1 mm 7 mps 742 mmHg 78%
    18:00 +9°C° 0.1 mm 6 mps 742 mmHg 77%
    19:00 +8°C° 0.1 mm 6 mps 742 mmHg 78%
    20:00 +8°C° 0.1 mm 6 mps 743 mmHg 79%
    21:00 +7°C° 0.1 mm 5 mps 743 mmHg 81%
    22:00 +7°C° 0 mm 5 mps 743 mmHg 83%
    23:00 +7°C° 0 mm 5 mps 744 mmHg 85%

    Day after tomorrow, 28 September, Friday

    Time Temperature Precipitation Wind Pressure Humidity
    00:00 +7°C° 0 mm 5 mps 744 mmHg 87%
    01:00 +6°C° 0 mm 5 mps 744 mmHg 87%
    02:00 +6°C° 0 mm 5 mps 744 mmHg 88%
    03:00 +6°C° 0 mm 5 mps 744 mmHg 88%
    04:00 +6°C° 0 mm 5 mps 744 mmHg 89%
    05:00 +6°C° 0 mm 5 mps 743 mmHg 89%
    06:00 +4°C° 0 mm 6 mps 743 mmHg 89%
    07:00 +6°C° 0 mm 7 mps 743 mmHg 85%
    08:00 +7°C° 0 mm 8 mps 742 mmHg 81%
    09:00 +8°C° 0 mm 9 mps 742 mmHg 77%
    10:00 +11°C° 0 mm 10 mps 741 mmHg 74%
    11:00 +12°C° 0 mm 10 mps 741 mmHg 71%
    12:00 +14°C° 0 mm 11 mps 741 mmHg 68%
    13:00 +14°C° 0 mm 10 mps 740 mmHg 69%
    14:00 +14°C° 0 mm 10 mps 740 mmHg 69%
    15:00 +16°C° 0 mm 10 mps 739 mmHg 70%
    16:00 +16°C° 0.2 mm 10 mps 739 mmHg 73%
    17:00 +15°C° 0.2 mm 9 mps 739 mmHg 76%
    18:00 +15°C° 0.2 mm 9 mps 739 mmHg 79%
    19:00 +13°C° 0.4 mm 8 mps 739 mmHg 78%
    20:00 +12°C° 0.4 mm 7 mps 740 mmHg 77%
    21:00 +11°C° 0.4 mm 7 mps 741 mmHg 76%
    22:00 +9°C° 0 mm 6 mps 742 mmHg 78%
    23:00 +8°C° 0 mm 5 mps 743 mmHg 80%

    29 September, Saturday

    Time Temperature Precipitation Wind Pressure Humidity
    00:00 +6°C° 0 mm 4 mps 743 mmHg 82%
    01:00 +7°C° 0 mm 3 mps 744 mmHg 84%
    02:00 +5°C° 0 mm 3 mps 745 mmHg 85%
    03:00 +4°C° 0 mm 3 mps 746 mmHg 87%
    04:00 +5°C° 0 mm 2 mps 746 mmHg 87%
    05:00 +4°C° 0 mm 2 mps 746 mmHg 87%
    06:00 +4°C° 0 mm 2 mps 747 mmHg 88%
    07:00 +5°C° 0 mm 2 mps 747 mmHg 81%
    08:00 +6°C° 0 mm 2 mps 748 mmHg 75%
    09:00 +6°C° 0 mm 2 mps 748 mmHg 68%
    10:00 +8°C° 0 mm 2 mps 748 mmHg 62%
    11:00 +9°C° 0 mm 2 mps 748 mmHg 56%
    12:00 +10°C° 0 mm 2 mps 749 mmHg 49%
    13:00 +10°C° 0 mm 2 mps 749 mmHg 49%
    14:00 +10°C° 0 mm 2 mps 749 mmHg 49%
    15:00 +12°C° 0 mm 2 mps 749 mmHg 49%
    16:00 +10°C° 0 mm 2 mps 749 mmHg 53%
    17:00 +11°C° 0 mm 1 mps 749 mmHg 57%
    18:00 +10°C° 0 mm 1 mps 749 mmHg 61%
    19:00 +9°C° 0 mm 1 mps 750 mmHg 63%
    20:00 +9°C° 0 mm 1 mps 750 mmHg 65%
    21:00 +7°C° 0 mm 2 mps 751 mmHg 67%
    22:00 +7°C° 0 mm 2 mps 751 mmHg 69%
    23:00 +6°C° 0 mm 2 mps 751 mmHg 71%

    30 September, Sunday

    Time Temperature Precipitation Wind Pressure Humidity
    00:00 +6°C° 0 mm 2 mps 752 mmHg 73%
    01:00 +5°C° 0 mm 2 mps 752 mmHg 73%
    02:00 +5°C° 0 mm 2 mps 752 mmHg 73%
    03:00 +4°C° 0 mm 2 mps 752 mmHg 73%
    04:00 +4°C° 0 mm 2 mps 753 mmHg 73%
    05:00 +3°C° 0 mm 2 mps 753 mmHg 73%
    06:00 +3°C° 0 mm 2 mps 753 mmHg 73%
    07:00 +5°C° 0 mm 1 mps 753 mmHg 69%
    08:00 +6°C° 0 mm 1 mps 754 mmHg 66%
    09:00 +7°C° 0 mm 1 mps 754 mmHg 62%
    10:00 +8°C° 0 mm 1 mps 754 mmHg 58%
    11:00 +8°C° 0 mm 2 mps 754 mmHg 53%
    12:00 +9°C° 0 mm 2 mps 754 mmHg 48%
    13:00 +10°C° 0 mm 2 mps 754 mmHg 47%
    14:00 +10°C° 0 mm 3 mps 754 mmHg 45%
    15:00 +11°C° 0 mm 3 mps 754 mmHg 44%
    16:00 +10°C° 0 mm 3 mps 753 mmHg 48%
    17:00 +9°C° 0 mm 2 mps 753 mmHg 52%
    18:00 +8°C° 0 mm 2 mps 753 mmHg 56%
    19:00 +7°C° 0 mm 2 mps 753 mmHg 57%
    20:00 +7°C° 0 mm 2 mps 753 mmHg 58%
    21:00 +6°C° 0 mm 2 mps 753 mmHg 58%
    22:00 +6°C° 0 mm 2 mps 753 mmHg 60%
    23:00 +5°C° 0 mm 3 mps 753 mmHg 61%

    1 October, Monday

    Time Temperature Precipitation Wind Pressure Humidity
    00:00 +4°C° 0 mm 3 mps 753 mmHg 62%
    01:00 +4°C° 0 mm 3 mps 753 mmHg 64%
    02:00 +4°C° 0 mm 3 mps 753 mmHg 67%
    03:00 +4°C° 0 mm 3 mps 753 mmHg 70%
    04:00 +3°C° 0 mm 3 mps 753 mmHg 72%
    05:00 +3°C° 0 mm 3 mps 753 mmHg 74%
    06:00 +3°C° 0 mm 3 mps 753 mmHg 77%
    07:00 +4°C° 0 mm 3 mps 753 mmHg 74%
    08:00 +5°C° 0 mm 3 mps 753 mmHg 70%
    09:00 +7°C° 0 mm 3 mps 753 mmHg 67%
    10:00 +8°C° 0 mm 4 mps 753 mmHg 62%
    11:00 +10°C° 0 mm 4 mps 753 mmHg 57%
    12:00 +11°C° 0 mm 4 mps 753 mmHg 52%
    13:00 +12°C° 0 mm 4 mps 752 mmHg 51%
    14:00 +12°C° 0 mm 4 mps 752 mmHg 50%
    15:00 +13°C° 0 mm 4 mps 752 mmHg 49%
    16:00 +12°C° 0 mm 3 mps 751 mmHg 53%
    17:00 +12°C° 0 mm 2 mps 751 mmHg 58%
    18:00 +10°C° 0 mm 2 mps 751 mmHg 62%
    19:00 +9°C° 0 mm 2 mps 751 mmHg 64%
    20:00 +8°C° 0 mm 2 mps 751 mmHg 65%
    21:00 +8°C° 0 mm 2 mps 751 mmHg 66%
    22:00 +8°C° 0 mm 2 mps 751 mmHg 68%
    23:00 +7°C° 0 mm 2 mps 752 mmHg 69%
    Show more